Location: doobydoo
(53.3403°N, 2.6908°W)
Time: 13:01:36
(UTC+00:00)

ISS - Pass Details

Date: 29 November 2021
Orbit: 413 x 422 km, 51.6° (Epoch: 28 January)

Event Time Altitude Azimuth Distance (km) Brightness Sun altitude
Rises 17:26:56 0° 260° (W) 2,387 2.0 -12.6°
Reaches altitude 10° 17:29:03 10° 258° (WSW) 1,519 0.5 -12.8°
Maximum altitude 17:32:26 65° 176° (S) 470 -3.5 -13.3°
Enters shadow 17:34:24 23° 99° (E) 958 -2.5 -13.6°
